TimeEDT,TemperatureF,Dew PointF,Humidity,Sea Level PressureIn,VisibilityMPH,Wind Direction,Wind SpeedMPH,Gust SpeedMPH,PrecipitationIn,Events,Conditions,WindDirDegrees,DateUTC
12:15 AM,51.8,51.8,100,30.09,10.0,Calm,Calm,-,N/A,,Overcast,0,2012-10-10 04:15:00
12:35 AM,51.8,51.8,100,30.08,10.0,Calm,Calm,-,N/A,,Overcast,0,2012-10-10 04:35:00
12:55 AM,51.8,51.8,100,30.08,10.0,Calm,Calm,-,N/A,,Overcast,0,2012-10-10 04:55:00
1:15 AM,51.8,51.8,100,30.08,10.0,Calm,Calm,-,N/A,,Overcast,0,2012-10-10 05:15:00
1:40 AM,51.8,51.8,100,30.07,10.0,Calm,Calm,-,N/A,,Overcast,0,2012-10-10 05:40:00
2:00 AM,51.8,51.8,100,30.07,10.0,Calm,Calm,-,N/A,,Overcast,0,2012-10-10 06:00:00
2:20 AM,51.8,51.8,100,30.06,10.0,Calm,Calm,-,N/A,,Overcast,0,2012-10-10 06:20:00
2:45 AM,51.8,51.8,100,30.06,10.0,Calm,Calm,-,N/A,,Overcast,0,2012-10-10 06:45:00
3:05 AM,51.8,51.8,100,30.05,10.0,Calm,Calm,-,N/A,,Overcast,0,2012-10-10 07:05:00
3:25 AM,51.8,51.8,100,30.04,10.0,Calm,Calm,-,N/A,,Overcast,0,2012-10-10 07:25:00
3:45 AM,51.8,51.8,100,30.04,10.0,Calm,Calm,-,N/A,,Overcast,0,2012-10-10 07:45:00
4:10 AM,51.8,51.8,100,30.03,10.0,Calm,Calm,-,N/A,,Overcast,0,2012-10-10 08:10:00
4:30 AM,51.8,51.8,100,30.03,7.0,Calm,Calm,-,N/A,,Overcast,0,2012-10-10 08:30:00
4:50 AM,51.8,51.8,100,30.03,7.0,SW,3.5,-,N/A,,Overcast,230,2012-10-10 08:50:00
5:10 AM,51.8,51.8,100,30.02,7.0,West,3.5,-,N/A,,Overcast,260,2012-10-10 09:10:00
5:35 AM,51.8,51.8,100,30.03,7.0,Calm,Calm,-,N/A,,Overcast,0,2012-10-10 09:35:00
5:55 AM,51.8,51.8,100,30.02,5.0,Calm,Calm,-,N/A,,Overcast,0,2012-10-10 09:55:00
6:15 AM,51.8,51.8,100,30.02,5.0,Calm,Calm,-,N/A,,Overcast,0,2012-10-10 10:15:00
6:35 AM,50.0,50.0,100,30.02,4.0,Calm,Calm,-,N/A,,Mostly Cloudy,0,2012-10-10 10:35:00
6:50 AM,50.0,50.0,100,30.02,3.0,Calm,Calm,-,N/A,,Mostly Cloudy,0,2012-10-10 10:50:00
7:10 AM,50.0,50.0,100,30.02,3.0,Calm,Calm,-,N/A,,Overcast,0,2012-10-10 11:10:00
7:50 AM,50.0,50.0,100,30.02,1.0,Calm,Calm,-,N/A,,Overcast,0,2012-10-10 11:50:00
8:10 AM,51.8,51.8,100,30.02,1.0,Calm,Calm,-,N/A,,Overcast,0,2012-10-10 12:10:00
8:52 AM,51.8,51.8,100,30.03,1.0,Calm,Calm,-,N/A,,Overcast,0,2012-10-10 12:52:00
9:47 AM,55.4,53.6,94,30.02,7.0,SSW,5.8,-,N/A,,Scattered Clouds,210,2012-10-10 13:47:00
10:47 AM,62.6,51.8,68,30.01,10.0,West,8.1,-,N/A,,Clear,270,2012-10-10 14:47:00
11:50 AM,46.4,46.4,100,30.00,10.0,West,15.0,21.9,N/A,,Scattered Clouds,260,2012-10-10 15:50:00
12:52 PM,64.4,48.2,56,29.97,10.0,WNW,9.2,-,N/A,,Scattered Clouds,290,2012-10-10 16:52:00
1:50 PM,66.2,50.0,56,29.94,10.0,WSW,9.2,-,N/A,,Mostly Cloudy,250,2012-10-10 17:50:00
2:50 PM,66.2,48.2,52,29.91,10.0,SW,10.4,-,N/A,,Mostly Cloudy,230,2012-10-10 18:50:00
3:55 PM,66.2,48.2,52,29.89,10.0,SW,9.2,-,N/A,,Mostly Cloudy,230,2012-10-10 19:55:00
4:50 PM,68.0,48.2,49,29.89,10.0,West,11.5,16.1,N/A,,Mostly Cloudy,270,2012-10-10 20:50:00
5:55 PM,64.4,46.4,52,29.92,10.0,NW,12.7,17.3,N/A,,Mostly Cloudy,310,2012-10-10 21:55:00
6:45 PM,62.6,48.2,59,29.97,10.0,NW,20.7,26.5,N/A,,Mostly Cloudy,320,2012-10-10 22:45:00
7:55 PM,57.2,44.6,63,30.03,10.0,NW,16.1,20.7,N/A,,Clear,320,2012-10-10 23:55:00
9:10 PM,51.8,41.0,67,30.06,10.0,NW,4.6,-,N/A,,Clear,310,2012-10-11 01:10:00
9:30 PM,51.8,41.0,67,30.07,10.0,WNW,4.6,-,N/A,,Clear,300,2012-10-11 01:30:00
9:50 PM,50.0,41.0,71,30.08,10.0,WNW,4.6,-,N/A,,Clear,290,2012-10-11 01:50:00
10:10 PM,50.0,41.0,71,30.09,10.0,NW,4.6,-,N/A,,Clear,310,2012-10-11 02:10:00
10:35 PM,48.2,41.0,76,30.10,10.0,NW,5.8,-,N/A,,Clear,310,2012-10-11 02:35:00
10:55 PM,46.4,41.0,81,30.11,10.0,NW,3.5,-,N/A,,Clear,310,2012-10-11 02:55:00
11:15 PM,48.2,42.8,82,30.12,10.0,Calm,Calm,-,N/A,,Mostly Cloudy,0,2012-10-11 03:15:00
11:35 PM,48.2,41.0,76,30.12,10.0,West,4.6,-,N/A,,Scattered Clouds,270,2012-10-11 03:35:00